overkillshop.com alexa rank chart, overkillshop.com alexa rank daily changes

overkillshop.com alexa rank chart, overkillshop.com alexa rank daily changes

overkillshop.com
Actual rank:
65 939

RANK HISTORY

Date Rank Diff
2017/08/21 65 939 +1 318
2017/08/20 64 621 +567
2017/08/19 64 054 -539
2017/08/18 64 593 +1 397
2017/08/17 63 196 +268
2017/08/16 62 928 +367
2017/08/15 62 561 +1 076
2017/08/14 61 485 -1 685
2017/08/13 63 170 -1 351
2017/08/12 64 521 +765
2017/08/11 63 756 -313
2017/08/10 64 069 +907
2017/08/09 63 162 +737
2017/08/08 62 425 +419
2017/08/07 62 006 +1 229
2017/08/06 60 777 +1 345
2017/08/05 59 432 -428
2017/08/04 59 860 +158
2017/08/03 59 702 -1 204
2017/08/02 60 906 -693
2017/08/01 61 599 -720
2017/07/31 62 319 -44
2017/07/30 62 363 -196
2017/07/29 62 559 -925
2017/07/28 63 484 +17
2017/07/27 63 467 +1 186
2017/07/26 62 281 -89
2017/07/25 62 370 -427
2017/07/24 62 797 -349
2017/07/23 63 146 -1
2017/07/22 63 147 +148
2017/07/21 62 999 -1 852
2017/07/20 64 851 +53
2017/07/19 64 798 -739
2017/07/18 65 537 -1 295
2017/07/17 66 832 -1 022
2017/07/16 67 854 -788
2017/07/15 68 642 -2 094
2017/07/14 70 736 +547
2017/07/13 70 189 -826
2017/07/12 71 015 -465
2017/07/11 71 480 +1 013
2017/07/10 70 467 -1 902
2017/07/09 72 369 -480
2017/07/08 72 849 -1 662
2017/07/07 74 511 -66
2017/07/06 74 577 -1 865
2017/07/05 76 442 +1 653
2017/07/04 74 789 -1 154
2017/07/03 75 943 +2 828
2017/07/02 73 115 +1 076
2017/07/01 72 039 -1 236
2017/06/30 73 275 -1 748
2017/06/29 75 023 +2 822
2017/06/28 72 201 +1 886
2017/06/27 70 315 -665
2017/06/26 70 980 +473
2017/06/25 70 507 +279
2017/06/24 70 228 +1 135
2017/06/23 69 093 +1 158
2017/06/22 67 935

WIDGET FOR YOUR SITE

DOMAINS WITH THE NEAREST RANK

Domain Rank
podrygka.ru 65 934
arel.ir 65 935
iranorthoped.com 65 936
axadirect.pl 65 937
xxzhushou.cn 65 938
overkillshop.com 65 939
yifydownloads.com 65 940
psychiatry.org 65 941
ufa1.ru 65 942
catch.tube 65 943
uohyd.ac.in 65 944

DOMAINS WITH THE NEAREST RANK BY TLD .com

Domain Rank
mashed.com 65 924
loveindonesia.com 65 926
sunnah.com 65 929
bpm-power.com 65 930
iranorthoped.com 65 936
overkillshop.com 65 939
yifydownloads.com 65 940
aircraftspruce.com 65 945
xxxnaja.com 65 946
pakistantribe.com 65 947
abvent.com 65 952